Regional Weather Roundup
Issued by NWS Kansas City/Pleasant Hill, MO

Home | Current Version | Previous Version | Graphics & Text | Print | Product List | Glossary Off
Versions: 1 2 3 4 5 6 7 8 9 10 11 12 13 14 15 16 17 18 19 20 21 22 23 24 25 26 27 28 29 30 31 32 33 34 35 36 37 38 39 40 41 42 43 44 45 46 47 48 49 50

961
ASUS43 KEAX 101910
RWREAX

WEATHER ROUNDUP FOR EASTERN KANSAS AND NORTHWEST MISSOURI
NATIONAL WEATHER SERVICE KANSAS CITY/PLEASANT HILL MO
100 PM CST SUN DEC 10 2017

KSZ040-057-103>105-MOZ028-029-037-043-102000-
...KANSAS CITY METROPOLITAN AREA...

CITY           SKY/WX    TMP DP  RH WIND       PRES   REMARKS
K.C. INTL      MOSUNNY   53  25  33 NW13      30.11S
K.C. DOWNTOWN  SUNNY     55  26  32 NW9       30.11S
LEES SUMMIT    SUNNY     54  25  32 NW18      30.11S
OLATHE - IXD   SUNNY     54  25  32 W15       30.13F
OLATHE - OJC   SUNNY     53  25  33 W12       30.11F
LAWRENCE       SUNNY     56  23  27 W17       30.13F

$$

MOZ001>008-011>017-020>025-030>033-038>040-044>046-053-054-102000-
...NORTHERN AND CENTRAL MISSOURI...

CITY           SKY/WX    TMP DP  RH WIND       PRES   REMARKS
ST. JOSEPH     SUNNY     52  27  38 NW14G22   30.11F
MOSBY          CLEAR     52  25  35 NW12G17   30.10S
WARRENSBURG    SUNNY     52  23  32 W9        30.09F
WHITEMAN AFB   MOSUNNY   53  25  33 W9        30.04F
CLINTON        SUNNY     54  25  32 W8        30.11F
SEDALIA        SUNNY     53  27  36 W16       30.09F
WARSAW         NOT AVBL
CHILLICOTHE      N/A     51  25  36 NW9       30.08S
KIRKSVILLE     SUNNY     48  26  42 W12       30.02F

$$

MOZ041-047>049-056>058-063>065-088>090-097-102000-
...EASTERN AND SOUTHERN MISSOURI...

CITY           SKY/WX    TMP DP  RH WIND       PRES   REMARKS
ST. LOUIS INTL NOT AVBL
SPIRIT OF STL  MOSUNNY   50  25  37 W13       29.99F
COLUMBIA       SUNNY     50  25  37 W14       30.04F
JEFFERSON CITY SUNNY     51  25  36 W15       30.05F
ROLLA          SUNNY     51  25  36 W15G26    30.04F
OSAGE BEACH    SUNNY     53  25  33 NW9G16    30.08F
SPRINGFIELD    SUNNY     54  24  31 W12       30.11F
BRANSON        MOSUNNY   55  21  26 W14       30.14F
JOPLIN         SUNNY     55  25  31 W9G18     30.17F
WEST PLAINS    SUNNY     55  23  28 W13G21    30.09F

$$

IAZ060-094-KSZ022-034>040-054-083-096-NEZ052-066-093-102000-
...KANSAS...SOUTHEAST NEBRASKA AND IOWA...

CITY           SKY/WX    TMP DP  RH WIND       PRES   REMARKS
TOPEKA         SUNNY     57  22  25 NW15      30.14F
MANHATTAN      SUNNY     61  20  20 NW8G17    30.17F
EMPORIA        SUNNY     58  21  24 NW16      30.18S
CHANUTE        SUNNY     60  19  20 NW13      30.18F
WICHITA        MOSUNNY   63  17  17 N18G25    30.22F
OMAHA          MOSUNNY   51  26  37 NW16      30.09F
LINCOLN        SUNNY     56  20  24 NW16      30.13F
FALLS CITY     SUNNY     53  24  32 W16       30.11S
LAMONI         SUNNY     49  25  39 NW14      30.04F
DES MOINES     CLOUDY    45  24  43 NW17G24   30.03R

$$





USA.gov is the U.S. government's official web portal to all federal, state and local government web resources and services.